Location: Borkenes
(68.7830°N, 16.1830°E)
Time: 17:58:38
(UTC+01:00)

Oscar 11 - Visible Passes

Search period start: 05 December 2019 00:00
Search period end: 15 December 2019 00:00
Orbit: 612 x 626 km, 97.6° (Epoch: 05 December)

Date Brightness Start Highest point End Pass type
(mag) Time Alt. Az. Time Alt. Az. Time Alt. Az.
05 Dec 10.0 05:44:24 10° NE 05:47:21 18° E 05:50:17 10° SE visible
05 Dec 7.8 07:20:08 10° NNE 07:24:25 56° ESE 07:28:39 10° S visible
05 Dec 7.3 08:56:25 10° NNE 09:00:35 47° NW 09:04:44 10° SW visible
05 Dec 8.0 15:17:17 10° E 15:20:54 26° NE 15:24:31 10° NNW visible
05 Dec 7.0 16:52:16 10° SE 16:56:33 66° ENE 17:00:52 10° NNW visible
05 Dec 8.5 18:28:56 10° SSW 18:32:59 38° W 18:37:04 10° NNW visible
05 Dec 10.2 20:08:31 10° W 20:10:21 12° WNW 20:12:12 10° NW visible
06 Dec 9.7 06:01:20 10° NE 06:04:41 21° E 06:08:01 10° SE visible
06 Dec 7.4 07:37:14 10° NNE 07:41:34 70° ESE 07:45:53 10° SSW visible
06 Dec 7.8 15:34:05 10° ESE 15:37:52 30° NE 15:41:39 10° NNW visible
06 Dec 6.9 17:09:19 10° SSE 17:13:39 81° ENE 17:18:00 10° NNW visible
06 Dec 8.9 18:46:22 10° SSW 18:50:14 31° W 18:54:07 10° NNW visible
07 Dec 9.3 06:18:19 10° NNE 06:21:59 26° E 06:25:37 10° SSE visible
07 Dec 7.1 07:54:22 10° NNE 07:58:42 86° ESE 08:03:02 10° SSW visible
07 Dec 7.6 15:50:55 10° ESE 15:54:51 35° NE 15:58:47 10° NNW visible
07 Dec 7.1 17:26:25 10° SSE 17:30:46 83° WSW 17:35:07 10° NNW visible
07 Dec 9.2 19:03:54 10° SW 19:07:31 25° W 19:11:08 10° NNW visible
08 Dec 10.5 05:01:07 10° ENE 05:01:44 10° ENE 05:02:21 10° ENE visible
08 Dec 9.0 06:35:21 10° NNE 06:39:15 32° E 06:43:08 10° SSE visible
08 Dec 7.0 08:11:29 10° NNE 08:15:49 78° WNW 08:20:08 10° SSW visible
08 Dec 8.4 14:33:21 10° ENE 14:36:29 20° NNE 14:39:38 10° NNW visible
08 Dec 7.4 16:07:47 10° ESE 16:11:51 41° NE 16:15:55 10° NNW visible
08 Dec 7.4 17:43:36 10° S 17:47:54 67° WSW 17:52:14 10° NNW visible
08 Dec 9.6 19:21:32 10° SW 19:24:49 21° W 19:28:07 10° NW visible
09 Dec 10.2 05:17:12 10° NE 05:19:09 13° ENE 05:21:07 10° ESE visible
09 Dec 8.5 06:52:24 10° NNE 06:56:30 39° E 07:00:33 10° SSE visible
09 Dec 7.0 08:28:37 10° NNE 08:32:54 64° WNW 08:37:10 10° SW visible
09 Dec 8.2 14:50:05 10° E 14:53:24 22° NNE 14:56:44 10° NNW visible
09 Dec 7.2 16:24:42 10° SE 16:28:52 49° NE 16:33:03 10° NNW visible
09 Dec 7.8 18:00:50 10° S 18:05:04 54° WSW 18:09:20 10° NNW visible
09 Dec 9.8 19:39:18 10° WSW 19:42:10 17° W 19:45:02 10° NW visible
10 Dec 10.1 05:33:53 10° NE 05:36:33 16° ENE 05:39:11 10° ESE visible
10 Dec 8.1 07:09:29 10° NNE 07:13:42 49° ESE 07:17:54 10° S visible
10 Dec 7.2 08:45:45 10° NNE 08:49:58 53° NW 08:54:10 10° SW visible
10 Dec 8.1 15:06:49 10° E 15:10:20 25° NE 15:13:51 10° NNW visible
10 Dec 7.0 16:41:40 10° SE 16:45:55 59° ENE 16:50:11 10° NNW visible
10 Dec 8.2 18:18:08 10° S 18:22:16 43° W 18:26:25 10° NNW visible
10 Dec 10.1 19:57:15 10° WSW 19:59:32 14° WNW 20:01:50 10° NW visible
11 Dec 9.8 05:50:46 10° NE 05:53:53 19° E 05:57:01 10° SE visible
11 Dec 7.6 07:26:35 10° NNE 07:30:53 61° ESE 07:35:09 10° S visible
11 Dec 7.4 09:02:53 10° NNE 09:07:00 44° NW 09:11:06 10° WSW visible
11 Dec 7.9 15:23:37 10° E 15:27:17 28° NE 15:30:58 10° NNW visible
11 Dec 6.9 16:58:41 10° SE 17:02:59 72° ENE 17:07:19 10° NNW visible
11 Dec 8.6 18:35:31 10° SSW 18:39:30 35° W 18:43:29 10° NNW visible
11 Dec 10.3 20:15:34 10° W 20:16:56 11° WNW 20:18:18 10° NW visible
12 Dec 9.5 06:07:43 10° NNE 06:11:13 23° E 06:14:42 10° SE visible
12 Dec 7.3 07:43:42 10° NNE 07:48:02 76° ESE 07:52:22 10° SSW visible
12 Dec 7.7 15:40:25 10° ESE 15:44:15 32° NE 15:48:06 10° NNW visible
12 Dec 7.0 17:15:46 10° SSE 17:20:05 88° ENE 17:24:27 10° NNW visible
12 Dec 9.0 18:52:59 10° SSW 18:56:45 28° W 19:00:31 10° NNW visible
13 Dec 9.2 06:24:43 10° NNE 06:28:30 28° E 06:32:16 10° SSE visible
13 Dec 7.0 08:00:49 10° NNE 08:05:10 87° WNW 08:09:29 10° SSW visible
13 Dec 8.4 14:22:55 10° ENE 14:25:56 19° NNE 14:28:59 10° NNW visible
13 Dec 7.5 15:57:16 10° ESE 16:01:15 37° NE 16:05:14 10° NNW visible
13 Dec 7.2 17:32:54 10° SSE 17:37:13 76° WSW 17:41:34 10° NNW visible
13 Dec 9.4 19:10:34 10° SW 19:14:02 23° W 19:17:32 10° NNW visible
14 Dec 10.3 05:06:56 10° NE 05:08:19 11° ENE 05:09:42 10° E visible
14 Dec 8.8 06:41:46 10° NNE 06:45:45 35° E 06:49:44 10° SSE visible
14 Dec 7.0 08:17:56 10° NNE 08:22:15 72° WNW 08:26:34 10° SW visible
14 Dec 8.3 14:39:38 10° ENE 14:42:51 21° NNE 14:46:04 10° NNW visible
14 Dec 7.3 16:14:09 10° ESE 16:18:15 44° NE 16:22:22 10° NNW visible
14 Dec 7.5 17:50:06 10° S 17:54:22 61° WSW 17:58:40 10° NNW visible
14 Dec 9.7 19:28:15 10° SW 19:31:22 19° W 19:34:30 10° NW visible
